Location: Dana
(41.8364°N, 106.7042°W)
Time: 14:02:49
(UTC+00:00)

Transit 2A - Pass Details

Date: 12 May 2026
Orbit: 595 x 948 km, 66.7° (Epoch: 8 June)

Event Time Altitude Azimuth Distance (km) Brightness Sun altitude
Rises 07:27:01 0° 337° (NNW) 3,220 10.1 -29.7°
Reaches altitude 10° 07:29:50 10° 348° (NNW) 2,226 9.2 -29.7°
Maximum altitude 07:34:08 28° 47° (NE) 1,280 7.5 -29.6°
Enters shadow 07:35:24 25° 74° (ENE) 1,363 7.5 -29.5°
Drops below altitude 10° 07:38:06 10° 107° (ESE) 2,044 - -29.5°
Sets 07:40:34 0° 119° (ESE) 2,907 - -29.4°
